Weather History for KMGC - December, 2012

Change the Weather History Date:

Sunday, December 9, 2012

  Actual Average (KVPZ) Record (KVPZ)
Temperature  
Mean Temperature 38 °F 30 °F  
Max Temperature 42 °F 36 °F 52 °F (1999)
Min Temperature 33 °F 23 °F -3 °F (2000)
Degree Days  
Heating Degree Days 28 35  
Month to date heating degree days 301  
Since 1 July heating degree days 1559  
Cooling Degree Days 0 0  
Month to date cooling degree days 0  
Year to date cooling degree days 713  
Moisture  
Dew Point 36 °F    
Average Humidity 93    
Maximum Humidity 100    
Minimum Humidity 87    
Precipitation  
Precipitation 0.00 in 0.07 in 0.76 in (2008)
Month to date precipitation 0.76  
Year to date precipitation 36.09  
Sea Level Pressure  
Sea Level Pressure 29.86 in    
Wind  
Wind Speed 6 mph (SE)    
Max Wind Speed 13 mph    
Max Gust Speed 21 mph    
Visibility 7 miles    
Events Rain    
T = Trace of Precipitation, MM = Missing Value Source: NWS Daily Summary

Daily Weather History Graph

Daily Weather History Graph

Search for Another Location

Airport or City:

Trip Planner

Search our weather history database for the weather conditions in past years. The results will help you decide how hot, cold, wet, or windy it might be!

Date:

Astronomy

Dec. 09, 2012 Rise Set
Actual Time 7:03 AM CST 4:16 PM CST
Civil Twilight 6:31 AM CST 4:48 PM CST
Nautical Twilight 5:56 AM CST 5:22 PM CST
Astronomical Twilight 5:23 AM CST 5:56 PM CST
Moon 2:32 AM CST (12/9) 1:25 PM CST (12/9)
Length of Visible Light 10h 16m
Length of Day
9h 13m
Waning Crescent, 18% of the Moon is Illuminated
Dec 9
Waning Crescent
Dec 13
New
Dec 19
First Quarter
Dec 28
Full
Jan 4
Last Quarter

Hourly Weather History & Observations

Time (CST) Temp. Windchill Dew Point Humidity Pressure Visibility Wind Dir Wind Speed Gust Speed Precip Events Conditions
12:15 AM 33.8 °F 30.8 °F 30.2 °F 87% 30.10 in 10.0 mi East 3.5 mph - N/A   Overcast
12:35 AM 33.8 °F 30.8 °F 30.2 °F 87% 30.09 in 10.0 mi East 3.5 mph - N/A   Overcast
1:15 AM 33.8 °F 27.0 °F 30.2 °F 87% 30.09 in 10.0 mi East 8.1 mph - N/A   Overcast
1:35 AM 33.8 °F 28.6 °F 30.2 °F 87% 30.09 in 10.0 mi East 5.8 mph - N/A   Overcast
1:55 AM 33.8 °F 27.7 °F 30.2 °F 87% 30.09 in 10.0 mi ESE 6.9 mph - N/A   Overcast
2:15 AM 33.8 °F 28.6 °F 32.0 °F 93% 30.09 in 10.0 mi East 5.8 mph - N/A   Overcast
2:35 AM 33.8 °F - 32.0 °F 93% 30.09 in 10.0 mi Calm Calm - N/A   Overcast
2:55 AM 33.8 °F 27.0 °F 32.0 °F 93% 30.08 in 10.0 mi SE 8.1 mph - N/A   Overcast
3:15 AM 33.8 °F 26.4 °F 32.0 °F 93% 30.08 in 10.0 mi ESE 9.2 mph - N/A   Overcast
3:35 AM 33.8 °F 27.7 °F 32.0 °F 93% 30.06 in 10.0 mi ESE 6.9 mph - N/A   Overcast
3:55 AM 33.8 °F 30.8 °F 32.0 °F 93% 30.06 in 10.0 mi East 3.5 mph - N/A   Overcast
4:15 AM 33.8 °F 27.7 °F 32.0 °F 93% 30.06 in 10.0 mi ESE 6.9 mph - N/A   Overcast
4:35 AM 33.8 °F 28.6 °F 32.0 °F 93% 30.05 in 10.0 mi East 5.8 mph - N/A   Overcast
4:55 AM 33.8 °F 25.8 °F 32.0 °F 93% 30.02 in 10.0 mi ESE 10.4 mph 16.1 mph N/A   Overcast
5:15 AM 35.6 °F 29.2 °F 32.0 °F 87% 30.03 in 10.0 mi East 8.1 mph - N/A   Overcast
5:55 AM 35.6 °F 28.0 °F 32.0 °F 87% 30.01 in 10.0 mi ESE 10.4 mph - N/A   Overcast
6:15 AM 35.6 °F 29.2 °F 32.0 °F 87% 30.00 in 10.0 mi ESE 8.1 mph - N/A   Overcast
6:35 AM 35.6 °F 29.2 °F 32.0 °F 87% 30.00 in 10.0 mi ESE 8.1 mph 16.1 mph N/A   Overcast
6:55 AM 35.6 °F 28.6 °F 32.0 °F 87% 29.99 in 10.0 mi ESE 9.2 mph 17.3 mph N/A   Overcast
7:15 AM 35.6 °F 30.7 °F 32.0 °F 87% 29.98 in 10.0 mi East 5.8 mph - N/A   Overcast
7:35 AM 35.6 °F 30.7 °F 32.0 °F 87% 29.98 in 10.0 mi East 5.8 mph - N/A   Overcast
7:55 AM 35.6 °F 28.6 °F 32.0 °F 87% 29.98 in 10.0 mi East 9.2 mph - N/A   Light Drizzle
8:35 AM 35.6 °F 29.2 °F 32.0 °F 87% 29.95 in 10.0 mi ESE 8.1 mph 18.4 mph N/A   Light Drizzle
8:55 AM 35.6 °F 28.6 °F 33.8 °F 93% 29.94 in 10.0 mi East 9.2 mph - N/A Rain Light Rain
9:15 AM 35.6 °F 29.9 °F 33.8 °F 93% 29.94 in 7.0 mi ESE 6.9 mph - N/A   Drizzle
9:35 AM 35.6 °F 30.7 °F 33.8 °F 93% 29.92 in 5.0 mi East 5.8 mph - N/A Rain Light Rain
9:55 AM 35.6 °F 29.2 °F 33.8 °F 93% 29.91 in 5.0 mi ESE 8.1 mph - N/A Rain Light Rain
10:15 AM 35.6 °F 31.7 °F 35.6 °F 100% 29.90 in 5.0 mi East 4.6 mph - N/A Rain Rain
10:35 AM 35.6 °F 29.9 °F 35.6 °F 100% 29.88 in 5.0 mi East 6.9 mph - N/A Rain Light Rain
10:55 AM 37.4 °F 31.4 °F 35.6 °F 93% 29.85 in 5.0 mi ESE 8.1 mph - N/A Rain Light Rain
11:15 AM 37.4 °F 30.8 °F 35.6 °F 93% 29.85 in 7.0 mi ESE 9.2 mph 17.3 mph N/A Rain Rain
11:35 AM 37.4 °F 32.1 °F 35.6 °F 93% 29.82 in 7.0 mi ESE 6.9 mph - N/A Rain Light Rain
11:55 AM 37.4 °F 31.4 °F 35.6 °F 93% 29.82 in 10.0 mi SE 8.1 mph 16.1 mph N/A   Overcast
12:15 PM 37.4 °F 29.8 °F 35.6 °F 93% 29.80 in 3.0 mi SE 11.5 mph 20.7 mph N/A   Overcast
12:35 PM 37.4 °F 30.8 °F 35.6 °F 93% 29.79 in 4.0 mi SE 9.2 mph - N/A Rain Light Rain
12:55 PM 37.4 °F 30.3 °F 37.4 °F 100% 29.78 in 4.0 mi SE 10.4 mph 16.1 mph N/A   Overcast
1:15 PM 37.4 °F 30.8 °F 37.4 °F 100% 29.77 in 2.5 mi SE 9.2 mph - N/A   Overcast
1:35 PM 37.4 °F 30.8 °F 37.4 °F 100% 29.75 in 4.0 mi ESE 9.2 mph - N/A   Overcast
1:55 PM 37.4 °F 30.8 °F 37.4 °F 100% 29.73 in 2.5 mi ESE 9.2 mph - N/A   Overcast
2:35 PM 39.2 °F - 37.4 °F 93% 29.75 in 4.0 mi Calm Calm - N/A   Overcast
2:55 PM 39.2 °F - 37.4 °F 93% 29.75 in 1.5 mi Calm Calm - N/A Rain Light Rain
3:15 PM 39.2 °F - 37.4 °F 93% 29.75 in 1.5 mi Calm Calm - N/A   Overcast
3:35 PM 41.0 °F - 39.2 °F 93% 29.75 in 1.2 mi Calm Calm - N/A   Overcast
3:55 PM 41.0 °F - 39.2 °F 93% 29.74 in 1.2 mi Calm Calm - N/A Rain Light Rain
4:15 PM 41.0 °F - 39.2 °F 93% 29.75 in 3.0 mi Calm Calm - N/A   Overcast
4:35 PM 41.0 °F - 41.0 °F 100% 29.75 in 3.0 mi Calm Calm - N/A   Overcast
4:55 PM 41.0 °F - 41.0 °F 100% 29.73 in 3.0 mi Calm Calm - N/A   Overcast
5:15 PM 41.0 °F - 41.0 °F 100% 29.72 in 4.0 mi Calm Calm - N/A   Overcast
5:55 PM 41.0 °F - 41.0 °F 100% 29.72 in 5.0 mi Calm Calm - N/A   Overcast
6:15 PM 42.8 °F 39.3 °F 41.0 °F 93% 29.72 in 5.0 mi SSW 5.8 mph - N/A   Overcast
6:35 PM 42.8 °F 39.3 °F 42.8 °F 100% 29.72 in 7.0 mi WSW 5.8 mph - N/A   Overcast
6:55 PM 42.8 °F 38.6 °F 42.8 °F 100% 29.72 in 7.0 mi West 6.9 mph - N/A   Overcast
7:15 PM 42.8 °F 41.1 °F 41.0 °F 93% 29.71 in 7.0 mi West 3.5 mph - N/A   Overcast
7:35 PM 42.8 °F 38.0 °F 41.0 °F 93% 29.71 in 7.0 mi West 8.1 mph - N/A   Overcast
7:55 PM 42.8 °F 39.3 °F 41.0 °F 93% 29.71 in 7.0 mi WSW 5.8 mph - N/A   Overcast
8:35 PM 41.0 °F 36.4 °F 41.0 °F 100% 29.70 in 10.0 mi West 6.9 mph - N/A   Overcast
8:55 PM 41.0 °F 35.2 °F 39.2 °F 93% 29.71 in 10.0 mi WSW 9.2 mph - N/A   Overcast
9:15 PM 41.0 °F 34.7 °F 39.2 °F 93% 29.71 in 10.0 mi West 10.4 mph 17.3 mph N/A   Overcast
9:35 PM 41.0 °F 35.2 °F 37.4 °F 87% 29.71 in 10.0 mi WSW 9.2 mph - N/A   Overcast
10:15 PM 41.0 °F 35.2 °F 37.4 °F 87% 29.70 in 10.0 mi West 9.2 mph - N/A   Overcast
10:35 PM 41.0 °F 38.0 °F 37.4 °F 87% 29.71 in 10.0 mi WSW 4.6 mph - N/A   Overcast
10:55 PM 41.0 °F 35.2 °F 37.4 °F 87% 29.71 in 10.0 mi WSW 9.2 mph - N/A   Overcast
11:15 PM 39.2 °F 32.0 °F 37.4 °F 93% 29.70 in 10.0 mi WSW 11.5 mph 20.7 mph N/A   Overcast
11:35 PM 37.4 °F 29.3 °F 35.6 °F 93% 29.71 in 10.0 mi West 12.7 mph 19.6 mph N/A   Overcast
11:55 PM 37.4 °F 29.8 °F 35.6 °F 93% 29.71 in 10.0 mi WSW 11.5 mph 16.1 mph N/A   Overcast